Weather in Voytovtsy

Ukraine / Khmelnitsky District     49°29′53″N   26°26′33″E
temp.,
°C
wind,
m/s
gust,
m/s
humid.,
%
clouds,
%
prec.,
mm/h
press.,
hPa
HPBL,
m
16 january, sun
sun1623:00−2nw7138579 0.0 1024587
02:00−3wnw6128999 0.0 1025485
05:00−3wnw6129283 0.0 1025438
08:00−3wnw51092100 0.0 1025506
11:00−2wnw4787100 0.0 1025466
14:00−1w3579100 0.0 1023413
17:00−3sw358950 0.0 102269
20:00−3sw3788100 0.0 1020110
17 january, mon
mon1723:00−1sw41070100 0.0 1018245
02:00−1w61573100 0.3 1017504
05:00−1w81775100 0.0 1014702
08:00−1w91784100 0.0 1012831
11:00+1w101884100 0.0 10081168
14:000w112291100 0.2 10041300
17:000w132395100 1.8 10011626
20:00−3wnw11197488 2.4 10071247
18 january, tue
tue1823:00−3wnw122186100 0.1 10091490
02:00−3nw13227533 0.5 10111337
05:00−3nw12207775 0.0 10151427
08:00−3nw101783100 0.1 10171176
11:00−2nnw10179491 1.1 10191506
14:00−2nnw10177125 1.4 10211551
17:00−3nw916725 0.0 1024994
20:00−4nw915775 0.0 1027910
19 january, wed
wed1923:00−5nw7148050 0.0 1029689
02:00−5nw6148620 0.0 1029517
05:00−5nw6129499 0.0 1029490
08:00−3nw51193100 0.1 1029620
11:00−2wnw51092100 0.1 1028587
14:00−2w499091 0.3 1025443
17:00−2wnw51189100 0.0 1023479
20:00−1w41188100 0.0 1022341
20 january, thu
thu2023:00−4wsw4991100 0.0 1021218
02:00−4wsw3890100 0.0 1019165
05:00−5sw3689100 0.0 1017105
08:00−5ssw248885 0.0 101557
11:00−2ssw378098 0.0 1013225
14:000sw357769 0.0 1011211
17:00−3ssw2284100 0.0 101036
20:00−2sw3881100 0.0 1009150